Regional Weather Roundup
Issued by NWS

Home | Current Version | Previous Version | Text Only | Print | Product List | Glossary On
Versions: 1 2 3 4 5 6 7 8 9 10 11 12 13 14 15 16 17 18 19 20 21 22 23 24 25 26 27 28 29 30 31 32 33 34 35 36 37 38 39 40 41 42 43 44 45 46 47 48 49 50
000
ASUS43 KDTX 200210
RWRMI
MICHIGAN HOURLY REGIONAL WEATHER ROUNDUP
NATIONAL WEATHER SERVICE DETROIT/PONTIAC MI
900 PM EST FRI DEC 19 2014

NOTE: "FAIR" INDICATES FEW OR NO CLOUDS BELOW 12,000 FEET WITH NO
SIGNIFICANT WEATHER AND/OR OBSTRUCTION TO VISIBILITY.

MIZ047>049-052>055-059>063-066>070-074>076-081>083-200300-
SOUTHEAST LOWER MICHIGAN

CITY           SKY/WX    TMP DP  RH WIND       PRES   REMARKS
ADRIAN         CLOUDY    30  20  66 CALM      30.28F
ALMA           CLEAR     23  21  93 CALM      30.31S
ANN ARBOR      CLOUDY    28  21  75 N7        30.28F
BAD AXE        CLEAR     16  16  98 CALM      30.31F
DETROIT CITY   CLEAR     28  19  69 CALM      30.32F
DETROIT        MOCLDY    24  19  81 N5        30.31F
FLINT          CLEAR     25  18  74 SW3       30.31F
GROSSE ILE     CLOUDY    28  21  74 CALM      30.29F
HILLSDALE      PTCLDY    27  23  82 NE6       30.23F
HOWELL         CLEAR     21  19  92 CALM      30.28F

CITY           SKY/WX    TMP DP  RH WIND       PRES   REMARKS
JACKSON        CLEAR     27  20  75 E3        30.26F
LAMBERTVILLE   CLOUDY    32  27  80 CALM      30.29F
LANSING        CLEAR     21  18  88 NE3       30.29F
LAPEER         NOT AVBL
MASON          CLEAR     24  21  87 CALM      30.27F
MONROE         CLOUDY    28  23  80 NE5       30.28F
MT. CLEMENS    CLEAR     26  22  87 W5        30.29F
PONTIAC        PTCLDY    22  18  85 W5        30.29F
PORT HOPE        N/A     25  18  74 SW3       30.31R
PORT HURON     CLEAR     23  21  93 CALM      30.32S
TRI CITIES     CLEAR     26  18  71 S6        30.32S
YPSILANTI      CLOUDY    29  21  72 N5        30.30F
$$
MIZ043>046-050>051-056>058-064>065-071>073-077>080-200300-
SOUTHWEST LOWER MICHIGAN

CITY           SKY/WX    TMP DP  RH WIND       PRES   REMARKS
BATTLE CREEK   CLEAR     24  19  81 NE5       30.26F
BENTON HARBOR  CLOUDY    29  22  75 E3        30.27S
BIG RAPIDS     CLEAR     20  19  95 CALM      30.28F
COLDWATER      CLEAR     21  20  95 MISG      30.25F FOG
HOLLAND        CLEAR     23  19  85 E3        30.28F
GRAND RAPIDS   PTCLDY    23  18  81 NE3       30.28F
KALAMAZOO      CLEAR     25  20  81 CALM      30.25F
MARSHALL       CLEAR     24  21  89 CALM      30.25F
MUSKEGON       CLEAR     24  18  77 CALM      30.29F
$$
MIZ016>042-200300-
NORTHERN LOWER MICHIGAN

CITY           SKY/WX    TMP DP  RH WIND       PRES   REMARKS
ALPENA         CLEAR     14  11  87 CALM      30.32R
BEAVER ISLAND  CLEAR     14  12  94 CALM      30.30F
BELLAIRE       CLOUDY    27  23  86 CALM      30.31S
CADILLAC       CLEAR     17  16  95 CALM      30.25F
CHARLEVOIX     CLOUDY    22  21  94 CALM      30.32F
FRANKFORT      CLOUDY    29  25  84 CALM      30.29F
GAYLORD        CLEAR     14  10  84 CALM      30.25F
GRAYLING       CLEAR      8   6  89 CALM      30.28S FOG
HARBOR SPRINGS CLEAR     14  11  90 NE3       30.30S
HOUGHTON LAKE  FOG       13  10  88 CALM      30.27S VSB 1
MANISTEE       CLOUDY    27  19  74 E5        30.29F
OSCODA         CLEAR     12  11  93 CALM      30.31S
PELLSTON       CLEAR      8   5  87 CALM      30.31R
TRAVERSE CITY  CLOUDY    28  20  71 CALM      30.30S
$$
MIZ007>008-015-200300-
EASTERN UPPER MICHIGAN

CITY           SKY/WX    TMP DP  RH WIND       PRES   REMARKS
KINROSS        PTCLDY    14  12  92 S3        30.29R
MACKINAC ISLAN CLEAR     17  17  97 CALM      30.30R
NEWBERRY       CLOUDY    16  15  96 W3        30.28R
S. S. MARIE    PTCLDY    18  12  77 CALM      30.27F
$$
MIZ004>006-011>014-085-200300-
CENTRAL UPPER MICHIGAN

CITY           SKY/WX    TMP DP  RH WIND       PRES   REMARKS
MANISTIQUE     CLOUDY    28  23  82 W5        30.29S
ESCANABA       CLEAR     23  18  80 CALM      30.29S
MENOMINEE      CLEAR     19  16  86 CALM      30.28F
SAWYER-GWINN   CLOUDY    25  19  80 S6        30.24S
$$
MIZ001>003-009>011-084-200300-
WESTERN UPPER MICHIGAN

CITY           SKY/WX    TMP DP  RH WIND       PRES   REMARKS
IRON MOUNTAIN  MOCLDY    10   6  84 CALM      30.23F FOG
HOUGHTON       CLOUDY    25  19  78 CALM      30.22S
COPPER HARBOR    N/A     29  23  78 CALM      30.25S
IRONWOOD       CLOUDY    23  19  86 CALM      30.18F
$$

ABBREVIATIONS USED IN REMARKS
   TC - TEMPERATURE IN CELSIUS
  WCI - WIND CHILL INDEX
   HX - HEAT INDEX
  VSB - VISIBILITY




USA.gov is the U.S. government's official web portal to all federal, state and local government web resources and services.